TimeMST,TemperatureF,Dew PointF,Humidity,Sea Level PressureIn,VisibilityMPH,Wind Direction,Wind SpeedMPH,Gust SpeedMPH,PrecipitationIn,Events,Conditions,WindDirDegrees,DateUTC
12:15 AM,23.4,9.7,56,30.18,10.0,ENE,4.6,-,N/A,,Clear,60,2014-01-18 07:15:00
12:35 AM,22.5,9.3,57,30.17,10.0,NE,5.8,-,N/A,,Clear,40,2014-01-18 07:35:00
12:55 AM,23.4,9.3,55,30.16,10.0,NE,3.5,-,N/A,,Clear,50,2014-01-18 07:55:00
1:15 AM,21.6,9.7,60,30.17,10.0,East,5.8,-,N/A,,Clear,90,2014-01-18 08:15:00
1:35 AM,27.1,10.4,49,30.17,10.0,NE,4.6,-,N/A,,Clear,50,2014-01-18 08:35:00
1:55 AM,21.9,9.7,59,30.17,10.0,North,4.6,-,N/A,,Clear,10,2014-01-18 08:55:00
2:15 AM,22.6,10.2,59,30.17,10.0,North,4.6,-,N/A,,Clear,350,2014-01-18 09:15:00
2:35 AM,19.9,9.5,64,30.18,10.0,NE,8.1,-,N/A,,Clear,50,2014-01-18 09:35:00
2:55 AM,19.6,9.5,65,30.17,10.0,North,4.6,-,N/A,,Clear,350,2014-01-18 09:55:00
3:15 AM,22.1,9.9,59,30.17,10.0,North,5.8,-,N/A,,Clear,350,2014-01-18 10:15:00
3:35 AM,22.6,10.9,61,30.17,10.0,NE,6.9,-,N/A,,Clear,40,2014-01-18 10:35:00
3:55 AM,23.4,11.1,60,30.18,10.0,NNE,4.6,-,N/A,,Clear,20,2014-01-18 10:55:00
4:15 AM,22.8,10.8,60,30.18,10.0,North,4.6,-,N/A,,Clear,360,2014-01-18 11:15:00
4:35 AM,22.3,10.9,62,30.18,10.0,North,6.9,-,N/A,,Clear,360,2014-01-18 11:35:00
4:55 AM,21.6,10.4,62,30.18,10.0,North,3.5,-,N/A,,Clear,360,2014-01-18 11:55:00
5:15 AM,21.0,10.0,63,30.19,10.0,North,5.8,-,N/A,,Clear,360,2014-01-18 12:15:00
5:35 AM,22.1,10.4,61,30.19,10.0,NNE,5.8,-,N/A,,Clear,30,2014-01-18 12:35:00
5:55 AM,22.6,9.7,58,30.19,10.0,North,8.1,-,N/A,,Clear,350,2014-01-18 12:55:00
6:15 AM,18.9,9.3,66,30.20,10.0,North,4.6,-,N/A,,Clear,10,2014-01-18 13:15:00
6:35 AM,19.9,10.4,67,30.21,10.0,NE,6.9,-,N/A,,Clear,50,2014-01-18 13:35:00
6:55 AM,19.6,9.7,65,30.22,10.0,North,6.9,-,N/A,,Clear,360,2014-01-18 13:55:00
7:15 AM,18.3,9.7,69,30.23,10.0,NW,6.9,-,N/A,,Clear,320,2014-01-18 14:15:00
7:35 AM,20.3,10.6,66,30.24,10.0,NNW,6.9,-,N/A,,Clear,340,2014-01-18 14:35:00
7:55 AM,23.0,11.7,62,30.24,10.0,North,6.9,-,N/A,,Clear,360,2014-01-18 14:55:00
8:15 AM,25.5,12.2,57,30.25,10.0,NNE,5.8,-,N/A,,Clear,20,2014-01-18 15:15:00
8:35 AM,30.0,13.1,49,30.26,10.0,NNE,6.9,-,N/A,,Clear,30,2014-01-18 15:35:00
8:55 AM,33.4,12.7,42,30.28,10.0,North,10.4,-,N/A,,Clear,10,2014-01-18 15:55:00
9:15 AM,36.0,12.7,38,30.29,10.0,North,8.1,-,N/A,,Clear,360,2014-01-18 16:15:00
9:35 AM,38.8,12.2,34,30.29,10.0,North,9.2,-,N/A,,Clear,350,2014-01-18 16:35:00
9:55 AM,39.9,12.0,32,30.29,10.0,NNW,5.8,-,N/A,,Clear,340,2014-01-18 16:55:00
10:15 AM,41.2,12.0,30,30.29,10.0,North,5.8,-,N/A,,Clear,360,2014-01-18 17:15:00
10:35 AM,43.0,12.2,29,30.29,10.0,North,5.8,-,N/A,,Clear,350,2014-01-18 17:35:00
10:55 AM,45.1,12.7,27,30.29,10.0,North,5.8,-,N/A,,Clear,350,2014-01-18 17:55:00
11:15 AM,45.9,12.0,25,30.28,10.0,North,6.9,-,N/A,,Clear,10,2014-01-18 18:15:00
11:35 AM,48.2,12.2,24,30.28,10.0,NNE,6.9,-,N/A,,Clear,20,2014-01-18 18:35:00
11:55 AM,48.9,11.7,22,30.26,10.0,North,8.1,-,N/A,,Clear,10,2014-01-18 18:55:00
12:15 PM,49.1,11.3,22,30.26,10.0,North,5.8,-,N/A,,Clear,360,2014-01-18 19:15:00
12:35 PM,50.2,11.5,21,30.25,10.0,NNW,4.6,-,N/A,,Clear,330,2014-01-18 19:35:00
12:55 PM,51.3,11.8,21,30.23,10.0,NW,3.5,-,N/A,,Clear,320,2014-01-18 19:55:00
1:15 PM,50.4,11.3,21,30.23,10.0,Calm,Calm,-,N/A,,Clear,0,2014-01-18 20:15:00
1:35 PM,51.8,12.0,20,30.23,10.0,NNE,4.6,-,N/A,,Clear,30,2014-01-18 20:35:00
1:55 PM,51.6,11.8,20,30.23,10.0,Calm,Calm,-,N/A,,Clear,0,2014-01-18 20:55:00
2:15 PM,52.3,11.8,20,30.23,10.0,Calm,Calm,-,N/A,,Clear,0,2014-01-18 21:15:00
2:35 PM,52.5,11.3,19,30.24,10.0,Calm,Calm,-,N/A,,Clear,0,2014-01-18 21:35:00
2:55 PM,52.3,10.9,19,30.25,10.0,Calm,Calm,-,N/A,,Clear,0,2014-01-18 21:55:00
3:15 PM,52.9,10.0,18,30.25,10.0,NE,3.5,-,N/A,,Clear,40,2014-01-18 22:15:00
3:35 PM,52.7,9.1,17,30.25,10.0,NE,6.9,-,N/A,,Clear,50,2014-01-18 22:35:00
3:55 PM,52.9,9.1,17,30.26,10.0,ENE,3.5,-,N/A,,Clear,60,2014-01-18 22:55:00
4:15 PM,52.5,8.8,17,30.26,10.0,NE,5.8,-,N/A,,Clear,40,2014-01-18 23:15:00
4:35 PM,50.9,8.4,18,30.26,10.0,North,4.6,-,N/A,,Clear,10,2014-01-18 23:35:00
4:55 PM,49.1,8.8,20,30.26,10.0,Calm,Calm,-,N/A,,Clear,0,2014-01-18 23:55:00
5:15 PM,46.2,8.4,21,30.26,10.0,Calm,Calm,-,N/A,,Clear,0,2014-01-19 00:15:00
5:35 PM,41.7,7.5,25,30.27,10.0,South,4.6,-,N/A,,Clear,190,2014-01-19 00:35:00
5:55 PM,37.0,7.2,29,30.28,10.0,South,4.6,-,N/A,,Clear,190,2014-01-19 00:55:00
6:15 PM,33.6,6.6,32,30.29,10.0,South,8.1,-,N/A,,Clear,180,2014-01-19 01:15:00
6:35 PM,31.8,6.1,34,30.29,10.0,South,5.8,-,N/A,,Clear,180,2014-01-19 01:35:00
6:55 PM,32.0,6.8,35,30.30,10.0,SSW,4.6,-,N/A,,Clear,200,2014-01-19 01:55:00
7:15 PM,29.5,6.8,38,30.31,10.0,Calm,Calm,-,N/A,,Clear,0,2014-01-19 02:15:00
7:35 PM,25.5,5.5,43,30.31,10.0,NE,3.5,-,N/A,,Clear,40,2014-01-19 02:35:00
7:55 PM,22.3,5.2,48,30.31,10.0,Calm,Calm,-,N/A,,Clear,0,2014-01-19 02:55:00
8:15 PM,21.4,4.8,49,30.32,10.0,North,3.5,-,N/A,,Clear,360,2014-01-19 03:15:00
8:35 PM,20.8,5.2,51,30.32,10.0,North,5.8,-,N/A,,Clear,10,2014-01-19 03:35:00
8:55 PM,21.0,6.1,53,30.33,10.0,NE,6.9,-,N/A,,Clear,40,2014-01-19 03:55:00
9:15 PM,23.0,6.8,50,30.34,10.0,Calm,Calm,-,N/A,,Clear,0,2014-01-19 04:15:00
9:35 PM,19.4,5.7,55,30.34,10.0,North,3.5,-,N/A,,Clear,350,2014-01-19 04:35:00
9:55 PM,18.5,5.5,57,30.34,10.0,North,4.6,-,N/A,,Clear,350,2014-01-19 04:55:00
10:15 PM,16.9,4.8,59,30.34,10.0,NNW,4.6,-,N/A,,Clear,330,2014-01-19 05:15:00
10:35 PM,17.6,5.7,60,30.35,10.0,West,3.5,-,N/A,,Clear,280,2014-01-19 05:35:00
10:55 PM,16.0,4.8,61,30.35,10.0,North,3.5,-,N/A,,Clear,350,2014-01-19 05:55:00
11:15 PM,14.4,4.6,65,30.35,10.0,NE,5.8,-,N/A,,Clear,50,2014-01-19 06:15:00
11:35 PM,14.5,5.2,66,30.34,10.0,ENE,5.8,-,N/A,,Clear,60,2014-01-19 06:35:00
11:55 PM,14.5,5.4,67,30.34,10.0,NE,4.6,-,N/A,,Clear,50,2014-01-19 06:55:00